| time (UTC) | temp F | wind direction | speed knots | gust knots | rain 1hr in | rain 24hr in | rain mn in | humidity % | barometer mb |
| 20260504214311 | 74 | 243 | 6.1 | 10.4 | 0.00 | 0.00 | 0.00 | 53 | 989.1 |
| 20260504213314 | 74 | 220 | 3.5 | 7.8 | 0.00 | 0.00 | 0.00 | 53 | 988.7 |
| 20260504212312 | 74 | 239 | 3.5 | 6.1 | 0.00 | 0.00 | 0.00 | 53 | 988.7 |
| 20260504211313 | 74 | 243 | 3.5 | 7.0 | 0.00 | 0.00 | 0.00 | 51 | 988.7 |
| 20260504210313 | 74 | 249 | 4.3 | 7.0 | 0.00 | 0.00 | 0.00 | 51 | 988.7 |
| 20260504204312 | 74 | 246 | 3.5 | 6.1 | 0.00 | 0.00 | 0.00 | 53 | 989.1 |
| 20260504203313 | 74 | 251 | 5.2 | 8.7 | 0.00 | 0.00 | 0.00 | 50 | 989.1 |
| 20260504202313 | 74 | 250 | 3.5 | 6.1 | 0.00 | 0.00 | 0.00 | 50 | 989.1 |
| 20260504201411 | 73 | 254 | 6.1 | 10.4 | 0.00 | 0.00 | 0.00 | 50 | 989.1 |
| 20260504200414 | 73 | 279 | 1.7 | 3.5 | 0.00 | 0.00 | 0.00 | 50 | 989.4 |
| 20260504195511 | 72 | 197 | 4.3 | 7.8 | 0.00 | 0.00 | 0.00 | 48 | 989.4 |
| 20260504193513 | 72 | 218 | 7.0 | 12.2 | 0.00 | 0.00 | 0.00 | 51 | 989.8 |
| 20260504192514 | 72 | 263 | 5.2 | 8.7 | 0.00 | 0.00 | 0.00 | 49 | 990.1 |
| 20260504191514 | 72 | 228 | 5.2 | 8.7 | 0.00 | 0.00 | 0.00 | 49 | 990.1 |
| 20260504190612 | 72 | 227 | 7.8 | 13.9 | 0.00 | 0.00 | 0.00 | 47 | 990.2 |
| 20260504185613 | 72 | 258 | 6.1 | 10.4 | 0.00 | 0.00 | 0.00 | 47 | 990.1 |
| 20260504184613 | 71 | 247 | 5.2 | 5.2 | 0.00 | 0.00 | 0.00 | 49 | 990.5 |
| 20260504183613 | 71 | 239 | 7.8 | 12.2 | 0.00 | 0.00 | 0.00 | 47 | 990.3 |
| 20260504182613 | 72 | 228 | 8.7 | 13.0 | 0.00 | 0.00 | 0.00 | 47 | 990.2 |
| 20260504180614 | 70 | 236 | 7.0 | 11.3 | 0.00 | 0.00 | 0.00 | 47 | 990.3 |
| 20260504174713 | 70 | 209 | 9.6 | 15.6 | 0.00 | 0.00 | 0.00 | 45 | 990.4 |
| 20260504173713 | 69 | 214 | 12.2 | 17.4 | 0.00 | 0.00 | 0.00 | 45 | 990.4 |
| 20260504172711 | 69 | 238 | 4.3 | 7.8 | 0.00 | 0.00 | 0.00 | 44 | 990.4 |
| 20260504171811 | 68 | 231 | 10.4 | 17.4 | 0.00 | 0.00 | 0.00 | 47 | 990.4 |
| 20260504170812 | 68 | 221 | 7.0 | 12.2 | 0.00 | 0.00 | 0.00 | 46 | 990.4 |
| 20260504151013 | 64 | 207 | 7.8 | 11.3 | 0.00 | 0.00 | 0.00 | 45 | 991.1 |
| 20260504141212 | 61 | 226 | 8.7 | 13.9 | 0.00 | 0.00 | 0.00 | 43 | 991.9 |
| 20260504140213 | 61 | 245 | 6.1 | 11.3 | 0.00 | 0.00 | 0.00 | 43 | 991.5 |
| 20260504130423 | 57 | 211 | 4.3 | 7.8 | 0.00 | 0.00 | 0.00 | 43 | 992.2 |
| 20260504110714 | 50 | 204 | 7.0 | 11.3 | 0.00 | 0.00 | 0.00 | 41 | 991.5 |
| 20260504081913 | 50 | 202 | 3.5 | 6.1 | 0.00 | 0.00 | 0.00 | 41 | 991.5 |
| 20260504080913 | 50 | 211 | 4.3 | 8.7 | 0.00 | 0.00 | 0.00 | 41 | 991.9 |
| 20260504070112 | 50 | 213 | 4.3 | 7.8 | 0.00 | 0.00 | 0.00 | 41 | 991.9 |
| 20260504050212 | 49 | 225 | 1.7 | 3.5 | 0.00 | 0.00 | 0.00 | 41 | 992.2 |
| 20260504045212 | 49 | 210 | 3.5 | 5.2 | 0.00 | 0.00 | 0.00 | 41 | 992.2 |
| 20260504044311 | 49 | 203 | 1.7 | 4.3 | 0.00 | 0.00 | 0.00 | 41 | 992.6 |
| 20260504043314 | 50 | 202 | 1.7 | 2.6 | 0.00 | 0.00 | 0.00 | 41 | 992.6 |
| 20260504042412 | 50 | 202 | 0.9 | 2.6 | 0.00 | 0.00 | 0.00 | 41 | 992.6 |
| 20260504041411 | 50 | 202 | 0.9 | 1.7 | 0.00 | 0.00 | 0.00 | 41 | 992.6 |
| 20260504040415 | 50 | 202 | 0.9 | 1.7 | 0.00 | 0.00 | 0.00 | 41 | 992.6 |
| 20260504035424 | 51 | 202 | 0.9 | 1.7 | 0.00 | 0.00 | 0.00 | 41 | 992.6 |
| 20260504033524 | 52 | 202 | 1.7 | 2.6 | 0.00 | 0.00 | 0.00 | 43 | 992.6 |
| 20260504032522 | 53 | 225 | 1.7 | 2.6 | 0.00 | 0.00 | 0.00 | 43 | 992.8 |
| 20260504031621 | 53 | 202 | 1.7 | 3.5 | 0.00 | 0.00 | 0.00 | 41 | 992.9 |
| 20260504030623 | 53 | 247 | 0.9 | 1.7 | 0.00 | 0.00 | 0.00 | 41 | 993.2 |
| 20260504025621 | 54 | 247 | 0.9 | 2.6 | 0.00 | 0.00 | 0.00 | 41 | 992.9 |
| 20260504024622 | 53 | 225 | 0.9 | 2.6 | 0.00 | 0.00 | 0.00 | 41 | 993.2 |
| 20260504023623 | 53 | 247 | 0.9 | 2.6 | 0.00 | 0.00 | 0.00 | 41 | 993.2 |
| 20260504022624 | 53 | 270 | 0.9 | 1.7 | 0.00 | 0.00 | 0.00 | 41 | 993.2 |
| 20260504021621 | 54 | 270 | 0.0 | 1.7 | 0.00 | 0.00 | 0.00 | 41 | 993.6 |
| 20260504020622 | 55 | 292 | 0.0 | 0.0 | 0.00 | 0.00 | 0.00 | 41 | 993.6 |
| 20260504015623 | 55 | 247 | 0.9 | 1.7 | 0.00 | 0.00 | 0.00 | 42 | 993.6 |
| 20260504014721 | 54 | 225 | 0.9 | 1.7 | 0.00 | 0.00 | 0.00 | 44 | 993.6 |
| 20260504013723 | 55 | 292 | 0.0 | 0.0 | 0.00 | 0.00 | 0.00 | 45 | 993.6 |
| 20260504011725 | 55 | 284 | 0.9 | 3.5 | 0.00 | 0.00 | 0.00 | 45 | 993.6 |
| 20260504010722 | 55 | 252 | 3.5 | 5.2 | 0.00 | 0.00 | 0.00 | 45 | 993.9 |
| 20260504005722 | 55 | 255 | 3.5 | 7.8 | 0.00 | 0.00 | 0.00 | 45 | 993.6 |
| 20260504004721 | 56 | 254 | 5.2 | 7.8 | 0.00 | 0.00 | 0.00 | 45 | 993.6 |
| 20260504003722 | 56 | 292 | 4.3 | 9.6 | 0.00 | 0.00 | 0.00 | 45 | 993.6 |
| 20260504001822 | 56 | 269 | 3.5 | 10.4 | 0.00 | 0.00 | 0.00 | 46 | 993.2 |
| 20260504000822 | 56 | 285 | 1.7 | 6.1 | 0.00 | 0.00 | 0.00 | 45 | 992.9 |
| 20260503235823 | 56 | 287 | 1.7 | 6.1 | 0.00 | 0.00 | 0.00 | 45 | 992.9 |
| 20260503233823 | 56 | 238 | 3.5 | 7.8 | 0.00 | 0.00 | 0.00 | 45 | 992.9 |
| 20260503230922 | 57 | 264 | 5.2 | 9.6 | 0.00 | 0.00 | 0.00 | 45 | 993.2 |
| 20260503230021 | 57 | 309 | 0.9 | 9.6 | 0.00 | 0.00 | 0.00 | 43 | 993.0 |
| 20260503225023 | 57 | 270 | 5.2 | 14.8 | 0.00 | 0.00 | 0.00 | 42 | 993.0 |
| 20260503224022 | 57 | 317 | 0.0 | 3.5 | 0.00 | 0.00 | 0.00 | 42 | 992.7 |
| 20260503221122 | 58 | 247 | 2.6 | 6.1 | 0.00 | 0.00 | 0.00 | 42 | 992.6 |
| 20260503220125 | 58 | 271 | 2.6 | 6.1 | 0.00 | 0.00 | 0.00 | 42 | 992.9 |
| 20260503215123 | 57 | 279 | 1.7 | 3.5 | 0.00 | 0.00 | 0.00 | 42 | 992.9 |